{"data":{"norad_id":68208,"epoch":"2026-05-25T02:16:08.804640Z","epoch_age_seconds":62932,"freshness":"FRESH","line1":"1 68208U 26053B   26145.09454635  .00016899  00000+0  52453-3 0  9998","line2":"2 68208  97.2867  20.4885 0001746  94.8389 265.3053 15.33449306 11926","mean_motion":15.33449306,"eccentricity":0.0001746,"inclination_deg":97.2867,"raan_deg":20.4885,"arg_perigee_deg":94.8389,"mean_anomaly_deg":265.3053,"bstar":0.00052453,"rev_number":1192,"period_min":93.905940963659,"perigee_km":464.33545856008,"apogee_km":466.7252672032,"semimajor_km":6843.6673628816,"source":"CELESTRAK","updated_at":"2026-05-25T13:38:21.877150Z"}}